Regional Weather Roundup
Issued by NWS Midland/Odessa, TX

Home | Current Version | Previous Version | Text Only | Print | Product List | Glossary On
Versions: 1 2 3 4 5 6 7 8 9 10 11 12 13 14 15 16 17 18 19 20 21 22 23 24 25 26 27 28 29 30 31 32 33 34 35 36 37 38 39 40 41 42 43 44 45 46 47 48 49 50
000
ASUS44 KMAF 272310
RWRMAF
MIDLAND AREA WEATHER ROUNDUP
NATIONAL WEATHER SERVICE MIDLAND TX
600 PM CDT WED MAY 27 2015

...IN SOUTHWEST TEXAS AND SOUTHEAST NEW MEXICO...

CITY           SKY/WX    TMP DP  RH WIND       PRES   REMARKS
ALPINE         MOSUNNY   90  42  18 S13       30.04F
ANDREWS        FAIR      87  59  39 SE12G18   29.97F
ARTESIA        CLOUDY    90  43  19 SE13G20   29.96F
BIG SPRING     SUNNY     88  60  38 SE15G23   29.98F
CARLSBAD       CLOUDY    92  44  19 SE14      29.92F
DRYDEN           N/A     91  68  46 SE18G26   29.92F
FORT STOCKTON  MOSUNNY   90  60  36 SE21G33   29.92F
GUAD PASS      CLOUDY    81  41  24 E18       30.08F
HOBBS          MOSUNNY   86  52  30 SE12      29.99F
MARFA          MOSUNNY   88  37  16 S14       30.04F
MIDLAND AIRPK  MOSUNNY   90  59  35 SE14      29.96F
MIDLAND INTL   SUNNY     89  61  38 SE18      29.95F
ODESSA         SUNNY     89  58  34 S15G24    29.96F
PECOS          TSTM      82  54  38 NE9G16    29.91R
PRESIDIO       FAIR     100  42  14 E8G18     29.83F THUNDER
SEMINOLE       MOSUNNY   87  57  36 SE14      29.99F
SNYDER         SUNNY     87  63  44 SE13      29.97F
WINK           MOSUNNY   92  55  28 SE21G30   29.89F
$$
...OTHER STATIONS IN TEXAS...

CITY           SKY/WX    TMP DP  RH WIND       PRES   REMARKS
ABILENE        MOSUNNY   88  67  49 SE12      29.96F
AMARILLO       TSTM      77  55  46 SE21      30.00F
AUSTIN         PTSUNNY   85  72  65 S14G23    29.96F
BROWNSVILLE    CLOUDY    86  76  71 E10       29.95F
CORPUS CHRISTI PTSUNNY   86  74  67 SE18      29.97F
DALLAS FTW     CLOUDY    81  68  64 SE9       29.99F
DEL RIO        CLOUDY    85  70  60 SE12      29.91F
EL PASO        CLOUDY    90  19   7 CALM      29.95F
HOUSTON INT    MOSUNNY   84  72  67 SE8       30.02F
LUBBOCK        PTSUNNY   83  61  47 SE20G28   29.97F
SAN ANGELO     MOSUNNY   89  66  46 S12       29.93F
SAN ANTONIO    MOSUNNY   88  69  53 SE18      29.98F
WACO           CLOUDY    81  71  71 S7        30.00S
WICHITA FALLS  NOT AVBL
$$
...OTHER LOCATIONS IN NEW MEXICO...

CITY           SKY/WX    TMP DP  RH WIND       PRES   REMARKS
ALAMAGORDO     PTSUNNY   90  23   9 SW10G33   29.98F
ALBUQUERQUE    CLOUDY    77  30  17 S5        30.07F
CANNON AFB     CLOUDY    81  47  30 S17       30.02F
CLOVIS         CLOUDY    79  48  34 S16         N/A
HOLLOMAN AFB   PTSUNNY   90  18   7 SW8G17    29.96F
ROSWELL        PTSUNNY   92  38  15 S18       29.96F
RUIDOSO        CLOUDY    73  23  15 SW10      30.19F
SANTA FE       CLOUDY    73  26  17 SW14      30.12F
TRUTH OR CONSE MOSUNNY   86  18   8 SW9G24    30.00F
TUCUMCARI      MOSUNNY   85  38  18 S16G24    29.97F
$$


USA.gov is the U.S. government's official web portal to all federal, state and local government web resources and services.